sat.trackr.live / text

‹ back to catalog

STARLINK-31607

NORAD 59394 · 2024-062W

PAYLOAD ACTIVE UNKNOWN

§ Identity

Operator
Country
US
Launch date
2024-04-02
Launch site
AFWTR
Launch vehicle
Mass (kg)
RCS (m²)

Purposes: comms

External: N2YO · Heavens-Above · Gunter

§ Orbital elements

Epoch: 2026-09-21T18:04:33.672864Z

Period
93.85 min
Inclination
53.1611°
Eccentricity
0.0001205
Mean motion
15.34383481 rev/d
Perigee alt
461.9 km
Apogee alt
463.6 km
Semi-major
6,840.9 km
B*
-1.7715e-5
RAAN
61.8414°
Arg perigee
100.9087°
Mean anomaly
259.2051°
Rev number
13,972

§ Raw data

STARLINK-316071 59394U 24062W   26264.75316751 -.00000974  00000+0 -17715-4 0  99952 59394  53.1611  61.8414 0001205 100.9087 259.2051 15.34383481139722

JSON: /api/v1/satellites/59394 · /tle

For live sub-satellite position, see the globe view (requires WebGL).

§ Visibility from observer

Set your observer location to see the next 7 days of passes ≥ 10°. The values pass through the URL so the page stays shareable.

No JS? Fill the form by hand. The geolocation button needs JavaScript.